STARLINK-2469 (48128 NORAD) Tracking and Keplerian Element Data

This shows tracking and keplerian element data for the satellite.

Feedback or suggestion? Click here.




ElementValue
Catalog48128
NameSTARLINK-2469
Epoch Orbit180
Epoch Day136.75001157
Epoch Year2021
RAAN146.2455
Inclination53.0478
Eccentricity0.0002856
Argument of Perigee20.7418
Mean Anonmoly9.0545
Mean Motion15.73341815
Decay Rate-0.00233355
L11 48128U 21027AN 21136.75001157 -.00233355 00000-0 -16935-2 0 9993
L22 48128 53.0478 146.2455 0002856 20.7418 9.0545 15.73341815 1802

Live tracking and technical data element details for STARLINK-2469 (NORAD 48128). STARLINK-2469 can be tracked NOW for your location showing map with azimuth and elevation plus other details from your city location.

Track the satellite on the map from your city or location and see movement details for azimuth, elevation, latitude, longitude, range, height, and movement on the map or in text.







IsCatalogInMostPopularTable: catalog: 48128, numindb: 14
Update: records affected: 1



GetName: 48128 STARLINK-2469

Hit Count: updated at: Mon, 17 May 2021 16:57:29 GMT